SKYSAT-C5 (41772 NORAD) Tracking and Keplerian Element Data

This shows tracking and keplerian element data for the satellite.

Feedback or suggestion? Click here.




ElementValue
Catalog41772
NameSKYSAT-C5
Epoch Orbit10186
Epoch Day198.77826874
Epoch Year2018
RAAN269.0933
Inclination97.3501
Eccentricity0.0002323
Argument of Perigee118.6525
Mean Anonmoly29.193
Mean Motion15.23035325
Decay Rate5.87E-06
L11 41772U 16058C 18198.77826874 .00000587 00000-0 27879-4 0 9994
L22 41772 97.3501 269.0933 0002323 118.6525 29.1930 15.23035325101867

Live tracking and technical data element details for SKYSAT-C5 (NORAD 41772). SKYSAT-C5 can be tracked NOW for your location showing map with azimuth and elevation plus other details from your city location.

Track the satellite on the map from your city or location and see movement details for azimuth, elevation, latitude, longitude, range, height, and movement on the map or in text.







IsCatalogInMostPopularTable: catalog: 41772, numindb: 79
Update: records affected: 1



GetName: 41772 SKYSAT-C5

Hit Count: updated at: Thu, 19 Jul 2018 21:26:14 GMT